Location: Stony Creek
(40.9500°S, 175.8500°E)
Time: 08:47:25
(UTC+00:00)

Cosmos 1346 Rocket - Pass Details

Date: 15 May 2026
Orbit: 472 x 483 km, 81.2° (Epoch: 10 June)

Event Time Altitude Azimuth Distance (km) Brightness Sun altitude
Exits shadow 18:23:09 15° 256° (WSW) 1,389 4.2 -10.5°
Maximum altitude 18:23:48 16° 269° (W) 1,356 4.2 -10.4°
Drops below altitude 10° 18:26:03 10° 307° (NW) 1,666 4.9 -9.9°
Sets 18:28:46 0° 329° (NNW) 2,531 6.1 -9.5°
